Regional Weather Roundup
Issued by NWS

Home | Current Version | Previous Version | Graphics & Text | Print | Product List | Glossary On
Versions: 1 2 3 4 5 6 7 8 9 10 11 12 13 14 15 16 17 18 19 20 21 22 23 24 25 26 27 28 29 30 31 32 33 34 35 36 37 38 39 40 41 42 43 44 45 46 47 48 49 50
000
ASUS43 KLMK 170802
RWRKY
KENTUCKY REGIONAL WEATHER ROUNDUP
NATIONAL WEATHER SERVICE LOUISVILLE KY
400 AM EDT TUE OCT 17 2017

NOTE "FAIR" INDICATES FEW OR NO CLOUDS BELOW 12,000 FEET
WITH NO SIGNIFICANT WEATHER AND/OR OBSTRUCTIONS TO VISIBILITY.

KYZ001>023-026-027-061>063-070>075-170900-
WESTERN AND SOUTH CENTRAL KENTUCKY

CITY           SKY/WX    TMP DP  RH WIND       PRES   REMARKS
PADUCAH        CLEAR     38  35  89 CALM      30.32S
HENDERSON      CLEAR     39  38  96 CALM      30.33S
OWENSBORO      CLEAR     42  41  96 CALM      30.34R
HOPKINSVILLE   NOT AVBL
BOWLING GREEN  CLEAR     42  41  96 CALM      30.33S
GLASGOW        NOT AVBL
$$

KYZ024-025-028>034-038-045-046-053-170900-
NORTH CENTRAL KENTUCKY

CITY           SKY/WX    TMP DP  RH WIND       PRES   REMARKS
LOUISVILLE/SDF CLEAR     46  42  86 CALM      30.33S
LOUISVILLE/LOU CLEAR     42  42 100 CALM      30.34S
FORT KNOX      NOT AVBL
$$

KYZ035>037-039>044-047>052-055>060-089>105-170900-
NORTHEAST KENTUCKY

CITY           SKY/WX    TMP DP  RH WIND       PRES   REMARKS
LEXINGTON      CLEAR     41  36  82 CALM      30.32F
COVINGTON      CLEAR     40  40 100 CALM      30.32R
FRANKFORT      CLEAR     39  36  89 CALM      30.32F
$$

KYZ054-064>069-076>088-106>120-170900-
SOUTHEAST KENTUCKY

CITY           SKY/WX    TMP DP  RH WIND       PRES   REMARKS
JACKSON        CLEAR     43  40  89 CALM      30.32S
LONDON         CLEAR     40  38  93 CALM      30.33R
SOMERSET       NOT AVBL
MIDDLESBORO    FOG       40  40 100 CALM      30.35S VSB 1/4
MONTICELLO     SUNNY     37  37 100 N8        30.35S WCI  31
$$





USA.gov is the U.S. government's official web portal to all federal, state and local government web resources and services.